Погода Бологое

Погода Бологое : погода сейчас, прогноз погоды и архив. Всё, что Вы хотите узнать о погоде Бологое!

Поиск расширенной информации на нашем сайте:

Другие новости

Новости СМИ2

Главная страница сайта

Новости сайта

02.10.2013

Напоминаем, что на нашем новом сайте вы можете получить высокодетализированные прогнозы погоды по пунктам России, СНГ и мира (включающие важные для авиации метеовеличины, такие как направление и скорость ветра, видимость, явления погоды, количество и форма облачности, нижняя и верхняя граница облачности), а также ознакомиться с разнообразными материалами по авиационной метеорологии и подборкой полезных ссылок на эту тему.

Сайт Метеоцентр.Азия посвящён разработке технологий оптимизации авиаметеорологического обслуживания, включая проектирование и перспективное создание нескольких автоматизированных авиаметеорологических систем:
- система выпуска высокодетальных прогностических карт явлений погоды для нижнего воздушного пространства по России и ближнему зарубежью;
- система верификации прогнозов TAF (выпускаемых синоптиками официальных АМСГ РФ и ближнего зарубежья) и AUTOTAF (выпускаемых сайтом Метеоцентр.Азия) - выявление ошибок, онлайн-сопоставление с фактической погодой METAR, автоматическое внесение коррективов в прогнозы при резком отклонении фактической погоды от прогноза, подсчёт оправдываемости прогнозов по элементам и в целом;
- система обработки, анализа и отображения авиаметеорологической информации для применения провайдерами метеорологической информации.

Рекомендуем: Купить медицинский сейф холодильник купить холодильник медицинский.

Погода Бологое - сегодня

Время (UTC), дата Ветер
(°,м/с) 
Видим.   Явления Облачность Т
(°С)
Тd
(°С)
f(%) Тe
(°С)
Pmin
(гПа)
dP
(гПа)
Po
(мм)
O2
(г/м3)
Тmin Tmax R s Состояние
почвы
00 21.03.17 110 (В) 4000 м  дымка  ясно 
-4.9 -5.6 95 -4  1010.7  0.3  740  304           
03 21.03.17 100 (В) 4000 м  дымка  3/0 верхняя 
[Ci fib]
-4.8 -5.5 95 -4  1010.7  -0.1  740  304  -5.3         
06 21.03.17 140 (ЮВ) 4000 м  дымка  8/4 600 м средняя, верхняя 
[Sc|Ac cast|Ci fib]
-2.4 -3.5 92 -2  1010.3  740  301  -5.4      мокрый или
старый снег
50-90% 
09 21.03.17 170 (Ю) 20000 м    3/1 600 м средняя, верхняя 
[Sc|Ac cast|Cc]
+4.4 -3 59 +3  1009.3  -0.4  740  294           
12 21.03.17 170 (Ю) 20000 м  в посл. час крупа  9/9 600 м 
[Sc]
+4 -5.2 51 +3  1008.9  -0.5  739  294           
15 21.03.17 160 (Ю) 20000 м    8/8 600 м 
[Sc]
+5 -3.7 53 +4  1007.9  -0.8  739  293      0.0     
18 21.03.17 160 (Ю) 20000 м    9/9 600 м 
[Sc]
+4.3 -2.9 59 +3  1008.3  0.3  739  293    +5.9  0.0     
21 21.03.17 190 (Ю) 10 км    10/10 300 м 
[St]
+3.9 +0.6 79 +2  1009.3  740  294           
00 22.03.17 200 (Ю) 10 км    10/10 300 м 
[St]
+3.3 +1.4 87 +3  1010.9  1.5  741  295           
03 22.03.17 190 (Ю) 4000 м  дымка  10/10 300 м 
[St]
+3 +1.6 91 +4  1011.9  0.9  742  295  +3         
06 22.03.17 190 (Ю) 10 км    10/10 300 м 
[St]
+3.7 +1.3 84 +2  1012.6  0.7  742  295  +2.9      мокрый или
старый снег
50-90% 
09 22.03.17 200 (Ю) 10 км    9/8 600 м средняя 
[Sc|Ac cast]
+6.7 +0.5 65 +5  1012.3  742  292           
12 22.03.17 190 (Ю) 10 км    9/9 600 м 
[Sc]
+6.4 +1.5 71 +5  1012  -0.3  742  292           
15 22.03.17 230 (ЮЗ) 4000 м  слаб. ливневой дождь  10/10 300 м кучево-дожд. 
[Cb cap]
+4.6 +3 89 +5  1012.1  742  293      0.5     
18 22.03.17 250 (З) 4000 м  дымка{ливн. осадки}  ясно 
+2.6 +1.4 92 +3  1014.1  1.7  743  296    +7.1     
21 22.03.17 210 (ЮЗ) 4000 м  дымка  ясно 
-0.3 -0.9 96 1015.3  0.9  744  300           
00 23.03.17 200 (Ю) 4000 м  дымка  ясно 
-0.1 -0.7 96 +1  1016.2  745  300           
03 23.03.17 220 (ЮЗ) 4000 м  дымка  8/8 600 м 
[Sc]
+0.3 -0.8 92 -1  1016.8  0.6  745  300  -0.5    0.5     
06 23.03.17 240 (ЮЗ) 10 км    6/6 600 м 
[Sc]
+2 -0.4 84 +1  1017.7  746  298  -0.5      мокрый или
старый снег
50-90% 
09 23.03.17 230 (ЮЗ) 10 км    3/3 600 м 
[Sc]
+5.6 -0.3 66 +5  1017.5  0.1  746  294           
12 23.03.17 280 (З) 4{11}  20000 м    8/8 600 м 
[Sc]
+5.6 -2.3 57 +4  1018.1  0.5  746  295           
15 23.03.17 270 (З) 3{10}  10 км  {ливн. осадки}  3/3 600 м 
[Sc]
+4.7 -2.2 61 +4  1019.9  1.7  748  296      0.7     
18 23.03.17 220 (ЮЗ) 1{10}  10 км  {ливн. осадки}  ясно 
+0.6 -3.3 75 +1  1021.3  748  301    +6.7  0.7     
21 23.03.17 260 (З) 10 км    ясно 
-0.7 -3.4 82 1021.6  0.2  749  303           
00 24.03.17 220 (ЮЗ) 10 км    ясно 
-0.9 -4 79 -2  1020.7  -0.9  748  303           
Время (UTC), дата Ветер
(°,м/с) 
Видим.   Явления Облачность Т
(°С)
Тd
(°С)
f(%) Тe
(°С)
Pmin
(гПа)
dP
(гПа)
Po
(мм)
O2
(г/м3)
Тmin Tmax R s Состояние
почвы

Для получения пояснительной информации подведите курсор к названию столбца.

ПОГОДА Бологое - архив

Всё, что Вы хотите узнать о погоде Бологое - удобно и подробно!

Выберите нужную дату (начиная с 1 января 2015* года) и нажмите кнопку "Найти".
Будут отображены архивные сводки погоды по пункту Бологое, начиная с указанной даты.


Отображать данные в формате CSV (для использования в таблицах Excel)


Внимание! Наш архив погоды предназначен исключительно для личного некоммерческого использования в познавательных целях. Если Вам необходимы официальные справки о состоянии погоды (для производственных, юридических, коммерческих и т.п. целей), обращайтесь в органы Росгидромета.

*Примечание: данная дата относится к архиву по метеостанциям СССР (Россия, СНГ, Балтия).
Архив по метеостанциям Зарубежной Европы и Азии (кроме Китая) хранится 10 дней, по другим регионам земного шара (Китай, Африка, Америка, Австралия, Океания) - 1 день.

Бологое - район местоположения метеостанции


Название, широта, долгота, высота метеостанции:
Бологое 57.9°ш. 34.1°д. 188 м над ур. моря [Российская Федерация]

Дополнительная информация

В oтличие oт бoльшинства пoгoдных сайтoв мы публикуем пoдрoбную метеoинфoрмацию в детальнoм прoфессиoнальнoм фoрмате.

Характеристики температуры и влажнoсти вoздуха измеряются на высoте 2 м в тени вдали oт зданий и деревьев.
Скoрoсть ветра измеряется на высoте 10 м (на урoвне рoста челoвека скoрoсть ветра ниже в 1.5-2 раза). Если метеoстанция нахoдится в гoрoде или в лесу, тo скoрoсть ветра занижена на 2-4 м/с пo сравнению с oткрытым местoм. Скoрoсть ветра над акватoриями крупных рек и oзёр, а также на вершинах хoлмoв на 2-5 м/с выше, чем в oбычных услoвиях.
Атмoсфернoе давление в разных тoчках местнoсти мoжет значительнo oтличаться oт давления на метеoстанции, в зависимoсти oт услoвий рельефа (при пoдъёме на 10 м давление пoнижается примернo на 1 мм рт.ст.).